HAZ8899 ZGSZ-ZSHC

Flight info

Callsign HAZ8899
Flight time 1h 47m
Altitude 33100
Route GUBLO R200 BEBEM A470 UGAGO UGAGO81
Aircraft A320/M-SDE3FGHIRWY/LB1

Departure

Time 2026-04-27 03:41
Airport Shenzhen Bao'an International Airport (ZGSZ)

Arrival

Time 2026-04-27 05:28
Airport Hangzhou Xiaoshan International Airport (ZSHC)
Time Latitude Longitude Altitude Speed Heading
2026-04-27 03:22 22.63319 113.80781 15 ft 0 kts 333°
2026-04-27 03:32 22.63318 113.80782 15 ft 2 kts 333°
2026-04-27 03:32 22.63299 113.80792 15 ft 3 kts 339°
2026-04-27 03:32 22.63278 113.80799 18 ft 3 kts 349°
2026-04-27 03:32 22.63258 113.80801 16 ft 3 kts 13°
2026-04-27 03:33 22.63241 113.80792 17 ft 3 kts 61°
2026-04-27 03:33 22.63238 113.80786 15 ft 0 kts 63°
2026-04-27 03:35 22.63238 113.80787 15 ft 1 kts 63°
2026-04-27 03:35 22.63269 113.80851 15 ft 17 kts 63°
2026-04-27 03:35 22.63327 113.80974 15 ft 19 kts 63°
2026-04-27 03:35 22.63402 113.81026 15 ft 13 kts 339°
2026-04-27 03:36 22.63508 113.80969 15 ft 23 kts 333°
2026-04-27 03:36 22.63674 113.80878 15 ft 28 kts 333°
2026-04-27 03:36 22.63852 113.80780 15 ft 29 kts 333°
2026-04-27 03:36 22.64027 113.80684 15 ft 27 kts 333°
2026-04-27 03:37 22.64189 113.80595 15 ft 24 kts 333°
2026-04-27 03:37 22.64296 113.80549 17 ft 12 kts
2026-04-27 03:37 22.64343 113.80602 15 ft 9 kts 22°
2026-04-27 03:37 22.64434 113.80567 15 ft 21 kts 333°
2026-04-27 03:38 22.64595 113.80478 15 ft 28 kts 333°
2026-04-27 03:38 22.64772 113.80381 16 ft 29 kts 333°
2026-04-27 03:38 22.64950 113.80282 15 ft 25 kts 333°
2026-04-27 03:38 22.65090 113.80207 16 ft 20 kts 336°
2026-04-27 03:39 22.65181 113.80163 15 ft 11 kts
2026-04-27 03:39 22.65232 113.80230 15 ft 16 kts 64°
2026-04-27 03:39 22.65259 113.80327 15 ft 10 kts 120°
2026-04-27 03:39 22.65230 113.80345 15 ft 0 kts 152°
2026-04-27 03:40 22.65102 113.80417 15 ft 56 kts 153°
2026-04-27 03:40 22.64550 113.80720 15 ft 118 kts 153°
2026-04-27 03:40 22.63661 113.81208 18 ft 166 kts 153°
2026-04-27 03:41 22.62580 113.81803 442 ft 178 kts 154°
2026-04-27 03:41 22.61461 113.82425 1045 ft 184 kts 152°
2026-04-27 03:41 22.60336 113.83071 1783 ft 182 kts 152°
2026-04-27 03:41 22.59168 113.83738 2219 ft 201 kts 151°
2026-04-27 03:42 22.57868 113.84476 2578 ft 222 kts 152°
2026-04-27 03:42 22.56469 113.85270 3204 ft 234 kts 152°
2026-04-27 03:42 22.55016 113.86091 4051 ft 237 kts 153°
2026-04-27 03:42 22.53545 113.86921 4896 ft 241 kts 153°
2026-04-27 03:43 22.52049 113.87779 5598 ft 250 kts 149°
2026-04-27 03:43 22.50779 113.89161 6094 ft 271 kts 121°
2026-04-27 03:43 22.50288 113.91155 6776 ft 283 kts 89°
2026-04-27 03:43 22.50808 113.93220 7512 ft 291 kts 65°
2026-04-27 03:44 22.51734 113.95175 8300 ft 294 kts 63°
2026-04-27 03:44 22.52693 113.97143 9095 ft 298 kts 63°
2026-04-27 03:44 22.53669 113.99130 9881 ft 301 kts 63°
2026-04-27 03:44 22.54667 114.01165 10371 ft 315 kts 63°
2026-04-27 03:45 22.55725 114.03339 10586 ft 338 kts 64°
2026-04-27 03:45 22.56851 114.05672 10753 ft 361 kts 64°
2026-04-27 03:45 22.58046 114.08155 10944 ft 380 kts 64°
2026-04-27 03:45 22.59279 114.10719 11446 ft 388 kts 64°
2026-04-27 03:46 22.60528 114.13322 12060 ft 392 kts 64°
2026-04-27 03:46 22.61790 114.15956 12678 ft 396 kts 64°
2026-04-27 03:46 22.63067 114.18613 13276 ft 400 kts 64°
2026-04-27 03:46 22.64357 114.21298 13859 ft 404 kts 64°
2026-04-27 03:47 22.65658 114.24016 14375 ft 408 kts 64°
2026-04-27 03:47 22.66973 114.26758 14888 ft 412 kts 64°
2026-04-27 03:47 22.68299 114.29527 15392 ft 416 kts 63°
2026-04-27 03:47 22.69636 114.32318 15870 ft 420 kts 63°
2026-04-27 03:48 22.70985 114.35142 16354 ft 424 kts 63°
2026-04-27 03:48 22.72317 114.38001 16822 ft 427 kts 67°
2026-04-27 03:48 22.73297 114.41043 17304 ft 430 kts 76°
2026-04-27 03:48 22.74035 114.44191 17779 ft 433 kts 77°
2026-04-27 03:49 22.74776 114.47367 18232 ft 437 kts 77°
2026-04-27 03:49 22.75524 114.50570 18627 ft 441 kts 76°
2026-04-27 03:49 22.76192 114.53821 19025 ft 443 kts 82°
2026-04-27 03:49 22.76546 114.57150 19411 ft 447 kts 84°
2026-04-27 03:50 22.76885 114.60508 19801 ft 450 kts 84°
2026-04-27 03:50 22.77232 114.63891 20191 ft 453 kts 84°
2026-04-27 03:50 22.77583 114.67297 20575 ft 457 kts 84°
2026-04-27 03:50 22.77933 114.70686 20941 ft 460 kts 84°
2026-04-27 03:51 22.78287 114.74145 21306 ft 464 kts 84°
2026-04-27 03:51 22.78640 114.77631 21671 ft 467 kts 84°
2026-04-27 03:51 22.79002 114.81141 22026 ft 470 kts 84°
2026-04-27 03:51 22.79372 114.84672 22371 ft 474 kts 83°
2026-04-27 03:52 22.79747 114.88231 22721 ft 477 kts 83°
2026-04-27 03:52 22.80124 114.91811 23046 ft 480 kts 83°
2026-04-27 03:52 22.80503 114.95418 23377 ft 483 kts 83°
2026-04-27 03:52 22.80883 114.99042 23676 ft 486 kts 83°
2026-04-27 03:53 22.81266 115.02690 23954 ft 489 kts 83°
2026-04-27 03:53 22.81649 115.06361 24209 ft 492 kts 83°
2026-04-27 03:53 22.82030 115.10050 24512 ft 494 kts 83°
2026-04-27 03:53 22.82410 115.13755 24799 ft 496 kts 83°
2026-04-27 03:54 22.82790 115.17478 25080 ft 498 kts 83°
2026-04-27 03:54 22.83171 115.21218 25353 ft 500 kts 83°
2026-04-27 03:54 22.83553 115.24966 25624 ft 502 kts 83°
2026-04-27 03:54 22.83937 115.28737 25889 ft 504 kts 83°
2026-04-27 03:55 22.84322 115.32517 26148 ft 506 kts 83°
2026-04-27 03:55 22.84708 115.36316 26407 ft 508 kts 84°
2026-04-27 03:55 22.85094 115.40126 26676 ft 510 kts 84°
2026-04-27 03:55 22.85482 115.43953 26936 ft 512 kts 84°
2026-04-27 03:56 22.85868 115.47791 27229 ft 512 kts 84°
2026-04-27 03:56 22.86250 115.51626 27622 ft 511 kts 84°
2026-04-27 03:56 22.86630 115.55448 28018 ft 510 kts 84°
2026-04-27 03:56 22.87012 115.59265 28395 ft 509 kts 84°
2026-04-27 03:57 22.87407 115.63075 28773 ft 508 kts 84°
2026-04-27 03:57 22.87814 115.66876 29149 ft 507 kts 84°
2026-04-27 03:57 22.88226 115.70671 29540 ft 507 kts 84°
2026-04-27 03:57 22.88634 115.74464 29926 ft 506 kts 84°
2026-04-27 03:58 22.89034 115.78252 30271 ft 505 kts 84°
2026-04-27 03:58 22.89430 115.82035 30588 ft 505 kts 84°
2026-04-27 03:58 22.89821 115.85816 30898 ft 504 kts 84°
2026-04-27 03:58 22.90212 115.89594 31212 ft 504 kts 84°
2026-04-27 03:59 22.90605 115.93375 31528 ft 504 kts 84°
2026-04-27 03:59 22.90999 115.97149 31823 ft 503 kts 84°
2026-04-27 03:59 22.91392 116.00916 32156 ft 503 kts 84°
2026-04-27 03:59 22.91786 116.04685 32478 ft 502 kts 84°
2026-04-27 04:00 22.92178 116.08445 32790 ft 502 kts 84°
2026-04-27 04:00 22.92568 116.12210 33057 ft 502 kts 84°
2026-04-27 04:00 22.92956 116.15981 33126 ft 505 kts 84°
2026-04-27 04:01 22.93733 116.23579 33125 ft 507 kts 84°
2026-04-27 04:01 22.95030 116.31075 33127 ft 506 kts 70°
2026-04-27 04:02 22.98325 116.37769 33127 ft 503 kts 50°
2026-04-27 04:02 23.03339 116.42976 33126 ft 499 kts 34°
2026-04-27 04:03 23.08820 116.47516 33125 ft 499 kts 34°
2026-04-27 04:03 23.14325 116.52106 33120 ft 499 kts 35°
2026-04-27 04:04 23.19829 116.56700 33112 ft 499 kts 35°
2026-04-27 04:04 23.25329 116.61296 33124 ft 499 kts 35°
2026-04-27 04:05 23.30836 116.65898 33120 ft 499 kts 35°
2026-04-27 04:05 23.36352 116.70496 33121 ft 500 kts 35°
2026-04-27 04:06 23.41862 116.75109 33121 ft 500 kts 35°
2026-04-27 04:06 23.46959 116.80274 33121 ft 502 kts 44°
2026-04-27 04:07 23.54244 116.88482 33116 ft 502 kts 44°
2026-04-27 04:07 23.59114 116.93953 33102 ft 503 kts 44°
2026-04-27 04:08 23.63983 116.99440 33112 ft 504 kts 44°
2026-04-27 04:08 23.68856 117.04947 33110 ft 504 kts 44°
2026-04-27 04:09 23.72898 117.09531 33130 ft 505 kts 45°
2026-04-27 04:09 23.78619 117.15879 33117 ft 504 kts 42°
2026-04-27 04:10 23.83839 117.21001 33113 ft 504 kts 39°
2026-04-27 04:10 23.88305 117.25174 33114 ft 504 kts 39°
2026-04-27 04:11 23.94447 117.31049 33116 ft 505 kts 40°
2026-04-27 04:11 23.98819 117.35360 33127 ft 505 kts 41°
2026-04-27 04:12 24.04035 117.40518 33120 ft 506 kts 41°
2026-04-27 04:12 24.09271 117.45659 33123 ft 506 kts 40°
2026-04-27 04:13 24.14451 117.50865 33107 ft 507 kts 45°
2026-04-27 04:13 24.19220 117.56575 33125 ft 508 kts 46°
2026-04-27 04:14 24.23978 117.62292 33131 ft 507 kts 46°
2026-04-27 04:14 24.28737 117.67993 33139 ft 507 kts 46°
2026-04-27 04:15 24.33491 117.73686 33126 ft 506 kts 46°
2026-04-27 04:15 24.38244 117.79384 33132 ft 506 kts 47°
2026-04-27 04:16 24.42985 117.85087 33145 ft 506 kts 46°
2026-04-27 04:16 24.47685 117.90753 33144 ft 505 kts 46°
2026-04-27 04:17 24.52436 117.96487 33138 ft 504 kts 46°
2026-04-27 04:17 24.57120 118.02143 33136 ft 504 kts 46°
2026-04-27 04:18 24.61929 118.07739 33117 ft 503 kts 44°
2026-04-27 04:18 24.66810 118.13225 33146 ft 502 kts 44°
2026-04-27 04:19 24.71685 118.18721 33132 ft 502 kts 44°
2026-04-27 04:19 24.76530 118.24239 33125 ft 502 kts 44°
2026-04-27 04:20 24.81365 118.29776 33126 ft 502 kts 44°
2026-04-27 04:20 24.86209 118.35318 33123 ft 502 kts 44°
2026-04-27 04:21 24.91048 118.40854 33124 ft 502 kts 43°
2026-04-27 04:21 24.95892 118.46391 33121 ft 502 kts 43°
2026-04-27 04:22 25.00732 118.51937 33119 ft 502 kts 44°
2026-04-27 04:22 25.05568 118.57487 33116 ft 502 kts 44°
2026-04-27 04:23 25.10397 118.63050 33129 ft 502 kts 44°
2026-04-27 04:23 25.15115 118.68679 33121 ft 503 kts 45°
2026-04-27 04:24 25.19829 118.74453 33117 ft 503 kts 45°
2026-04-27 04:24 25.24494 118.80133 33119 ft 503 kts 45°
2026-04-27 04:25 25.29210 118.85836 33123 ft 502 kts 45°
2026-04-27 04:25 25.33924 118.91529 33119 ft 502 kts 45°
2026-04-27 04:26 25.38682 118.97181 33116 ft 501 kts 44°
2026-04-27 04:26 25.43502 119.02748 33125 ft 501 kts 43°
2026-04-27 04:27 25.48320 119.08308 33126 ft 500 kts 43°
2026-04-27 04:27 25.53109 119.13894 33137 ft 500 kts 44°
2026-04-27 04:28 25.57885 119.19505 33116 ft 501 kts 44°
2026-04-27 04:28 25.62666 119.25128 33104 ft 501 kts 44°
2026-04-27 04:29 25.67452 119.30746 33110 ft 501 kts 44°
2026-04-27 04:29 25.72393 119.36157 33125 ft 496 kts 34°
2026-04-27 04:30 25.78290 119.39933 33133 ft 486 kts 17°
2026-04-27 04:30 25.84698 119.42179 33126 ft 482 kts 12°
2026-04-27 04:31 25.91119 119.44355 33120 ft 482 kts 13°
2026-04-27 04:31 25.97534 119.46544 33121 ft 482 kts 13°
2026-04-27 04:32 26.03957 119.48728 33137 ft 482 kts 12°
2026-04-27 04:32 26.10374 119.50907 33129 ft 482 kts 12°
2026-04-27 04:33 26.16791 119.53093 33125 ft 482 kts 12°
2026-04-27 04:33 26.23225 119.54809 33119 ft 474 kts
2026-04-27 04:34 26.29755 119.54972 33127 ft 469 kts 355°
2026-04-27 04:34 26.36277 119.55010 33123 ft 469 kts 355°
2026-04-27 04:35 26.42800 119.55050 33116 ft 468 kts 355°
2026-04-27 04:35 26.49323 119.55094 33116 ft 469 kts 355°
2026-04-27 04:36 26.55844 119.55142 33134 ft 468 kts 355°
2026-04-27 04:36 26.62347 119.55182 33117 ft 466 kts 355°
2026-04-27 04:37 26.68851 119.55218 33127 ft 468 kts 355°
2026-04-27 04:37 26.75352 119.55252 33121 ft 467 kts 355°
2026-04-27 04:38 26.81847 119.55295 33142 ft 466 kts 354°
2026-04-27 04:38 26.88327 119.55344 33136 ft 465 kts 354°
2026-04-27 04:39 26.94787 119.55388 33129 ft 464 kts 354°
2026-04-27 04:39 27.01242 119.55422 33124 ft 463 kts 354°
2026-04-27 04:40 27.07691 119.55460 33126 ft 463 kts 354°
2026-04-27 04:40 27.14137 119.55505 33118 ft 463 kts 354°
2026-04-27 04:41 27.20576 119.55547 33113 ft 463 kts 354°
2026-04-27 04:41 27.27018 119.55586 33108 ft 463 kts 354°
2026-04-27 04:42 27.33455 119.55609 33123 ft 463 kts 354°
2026-04-27 04:42 27.39901 119.55608 33101 ft 463 kts 354°
2026-04-27 04:43 27.46305 119.55613 33093 ft 464 kts 354°
2026-04-27 04:43 27.52765 119.55652 33091 ft 464 kts 354°
2026-04-27 04:44 27.59231 119.55695 33105 ft 465 kts 354°
2026-04-27 04:44 27.65711 119.55733 33090 ft 466 kts 354°
2026-04-27 04:45 27.72198 119.55773 33087 ft 466 kts 354°
2026-04-27 04:45 27.78692 119.55804 33086 ft 467 kts 354°
2026-04-27 04:46 27.85191 119.55844 33088 ft 467 kts 354°
2026-04-27 04:46 27.91696 119.55885 33082 ft 467 kts 354°
2026-04-27 04:47 27.98197 119.55928 33079 ft 467 kts 354°
2026-04-27 04:47 28.04701 119.55968 33078 ft 467 kts 354°
2026-04-27 04:48 28.11206 119.56022 33089 ft 468 kts 355°
2026-04-27 04:48 28.17737 119.56341 33085 ft 471 kts 358°
2026-04-27 04:49 28.24232 119.56828 33073 ft 471 kts 358°
2026-04-27 04:49 28.30782 119.57271 33069 ft 471 kts 357°
2026-04-27 04:50 28.37325 119.57640 33085 ft 470 kts 356°
2026-04-27 04:50 28.43859 119.58014 33081 ft 470 kts 357°
2026-04-27 04:51 28.50381 119.58412 33077 ft 469 kts 357°
2026-04-27 04:51 28.56903 119.58819 33070 ft 469 kts 357°
2026-04-27 04:52 28.63423 119.59216 33078 ft 469 kts 357°
2026-04-27 04:52 28.69947 119.59628 33070 ft 470 kts 357°
2026-04-27 04:53 28.76472 119.60039 33065 ft 470 kts 357°
2026-04-27 04:53 28.83000 119.60444 33061 ft 470 kts 357°
2026-04-27 04:54 28.86234 119.60646 33076 ft 459 kts 357°
2026-04-27 04:54 28.89360 119.60848 33069 ft 441 kts 356°
2026-04-27 04:54 28.92366 119.61044 33072 ft 425 kts 357°
2026-04-27 04:54 28.95276 119.61230 33072 ft 418 kts 356°
2026-04-27 04:55 28.98233 119.61400 32868 ft 434 kts 356°
2026-04-27 04:55 29.01307 119.61564 32564 ft 449 kts 357°
2026-04-27 04:55 29.04413 119.61744 32259 ft 443 kts 357°
2026-04-27 04:55 29.07454 119.61942 31960 ft 433 kts 357°
2026-04-27 04:56 29.10434 119.62342 31676 ft 432 kts
2026-04-27 04:56 29.13234 119.63597 31385 ft 435 kts 25°
2026-04-27 04:56 29.15635 119.65703 31095 ft 437 kts 42°
2026-04-27 04:56 29.17431 119.68500 30806 ft 437 kts 60°
2026-04-27 04:57 29.18458 119.71752 30528 ft 434 kts 78°
2026-04-27 04:57 29.18679 119.74014 30342 ft 430 kts 90°
2026-04-27 04:57 29.18028 119.78458 29965 ft 428 kts 114°
2026-04-27 04:57 29.16629 119.81471 29661 ft 443 kts 131°
2026-04-27 04:58 29.15239 119.83265 29427 ft 450 kts 142°
2026-04-27 04:58 29.11699 119.85760 29003 ft 455 kts 166°
2026-04-27 04:58 29.09643 119.86383 28782 ft 451 kts 177°
2026-04-27 04:58 29.06532 119.86595 28468 ft 448 kts 185°
2026-04-27 04:59 29.02407 119.86485 28054 ft 448 kts 188°
2026-04-27 04:59 29.00303 119.86338 27846 ft 447 kts 189°
2026-04-27 04:59 28.97202 119.86066 27542 ft 447 kts 189°
2026-04-27 04:59 28.94112 119.85680 27236 ft 443 kts 197°
2026-04-27 05:00 28.91253 119.84517 26942 ft 434 kts 212°
2026-04-27 05:00 28.88798 119.82581 26653 ft 427 kts 226°
2026-04-27 05:00 28.86912 119.80063 26372 ft 422 kts 240°
2026-04-27 05:00 28.85685 119.77046 26083 ft 420 kts 255°
2026-04-27 05:01 28.85235 119.73770 25798 ft 420 kts 269°
2026-04-27 05:01 28.85582 119.70460 25517 ft 424 kts 283°
2026-04-27 05:01 28.86715 119.67346 25234 ft 429 kts 298°
2026-04-27 05:01 28.88574 119.64658 24957 ft 437 kts 313°
2026-04-27 05:02 28.91066 119.62628 24674 ft 446 kts 329°
2026-04-27 05:02 28.94031 119.61471 24405 ft 458 kts 346°
2026-04-27 05:02 29.00481 119.61272 23866 ft 468 kts 358°
2026-04-27 05:03 29.03733 119.61471 23603 ft 469 kts 360°
2026-04-27 05:03 29.06996 119.61752 23272 ft 470 kts
2026-04-27 05:03 29.10254 119.62051 22839 ft 470 kts
2026-04-27 05:03 29.13558 119.62327 22397 ft 479 kts 359°
2026-04-27 05:04 29.16889 119.62570 21953 ft 479 kts 359°
2026-04-27 05:04 29.20209 119.62784 21531 ft 477 kts 359°
2026-04-27 05:04 29.23511 119.62979 21111 ft 474 kts 358°
2026-04-27 05:04 29.26800 119.63164 20692 ft 472 kts 358°
2026-04-27 05:05 29.30074 119.63347 20291 ft 469 kts 358°
2026-04-27 05:05 29.33321 119.63534 19888 ft 466 kts 358°
2026-04-27 05:05 29.36550 119.63727 19496 ft 463 kts 358°
2026-04-27 05:05 29.39756 119.63925 19106 ft 461 kts 358°
2026-04-27 05:06 29.42948 119.64122 18717 ft 458 kts 358°
2026-04-27 05:06 29.46123 119.64320 18326 ft 455 kts 358°
2026-04-27 05:06 29.49279 119.64514 17890 ft 453 kts 358°
2026-04-27 05:06 29.52416 119.64705 17452 ft 450 kts 358°
2026-04-27 05:07 29.55529 119.64905 17020 ft 447 kts
2026-04-27 05:07 29.58600 119.65546 16592 ft 451 kts 12°
2026-04-27 05:07 29.61524 119.66866 16165 ft 453 kts 23°
2026-04-27 05:07 29.64211 119.68707 15786 ft 446 kts 32°
2026-04-27 05:08 29.66593 119.70916 15486 ft 435 kts 40°
2026-04-27 05:08 29.68637 119.73422 15201 ft 425 kts 49°
2026-04-27 05:08 29.70492 119.76018 14914 ft 416 kts 49°
2026-04-27 05:08 29.72309 119.78577 14630 ft 409 kts 49°
2026-04-27 05:09 29.74078 119.81086 14368 ft 397 kts 49°
2026-04-27 05:09 29.75793 119.83527 14130 ft 387 kts 49°
2026-04-27 05:09 29.77463 119.85909 13899 ft 378 kts 49°
2026-04-27 05:09 29.79095 119.88236 13667 ft 368 kts 49°
2026-04-27 05:10 29.80684 119.90503 13409 ft 359 kts 49°
2026-04-27 05:10 29.82237 119.92715 13141 ft 351 kts 49°
2026-04-27 05:10 29.83758 119.94876 12890 ft 344 kts 49°
2026-04-27 05:10 29.85163 119.97069 12633 ft 338 kts 56°
2026-04-27 05:11 29.86319 119.99396 12388 ft 332 kts 60°
2026-04-27 05:11 29.87397 120.01680 12133 ft 326 kts 60°
2026-04-27 05:11 29.88470 120.03951 11889 ft 320 kts 60°
2026-04-27 05:11 29.89529 120.06181 11635 ft 314 kts 60°
2026-04-27 05:12 29.90572 120.08379 11391 ft 310 kts 60°
2026-04-27 05:12 29.91602 120.10552 11137 ft 308 kts 60°
2026-04-27 05:12 29.92627 120.12713 10864 ft 307 kts 60°
2026-04-27 05:12 29.93651 120.14869 10600 ft 306 kts 60°
2026-04-27 05:13 29.94669 120.17015 10341 ft 304 kts 60°
2026-04-27 05:13 29.95680 120.19148 10084 ft 302 kts 60°
2026-04-27 05:13 29.96681 120.21268 9831 ft 300 kts 60°
2026-04-27 05:13 29.97673 120.23373 9549 ft 298 kts 60°
2026-04-27 05:14 29.98658 120.25466 9264 ft 296 kts 60°
2026-04-27 05:14 29.99642 120.27553 8982 ft 295 kts 60°
2026-04-27 05:14 30.00605 120.29642 8702 ft 294 kts 61°
2026-04-27 05:14 30.01543 120.31736 8424 ft 293 kts 62°
2026-04-27 05:15 30.02471 120.33827 8148 ft 292 kts 62°
2026-04-27 05:15 30.03393 120.35909 7878 ft 291 kts 62°
2026-04-27 05:15 30.04311 120.37984 7605 ft 289 kts 62°
2026-04-27 05:15 30.05226 120.40052 7338 ft 289 kts 62°
2026-04-27 05:16 30.06136 120.42109 7073 ft 287 kts 62°
2026-04-27 05:16 30.07042 120.44152 6806 ft 285 kts 62°
2026-04-27 05:16 30.07944 120.46182 6545 ft 281 kts 62°
2026-04-27 05:16 30.08830 120.48167 6304 ft 275 kts 62°
2026-04-27 05:17 30.09685 120.50082 6052 ft 269 kts 63°
2026-04-27 05:17 30.10528 120.51981 5793 ft 262 kts 63°
2026-04-27 05:17 30.11347 120.53835 5557 ft 257 kts 63°
2026-04-27 05:17 30.12155 120.55655 5306 ft 252 kts 63°
2026-04-27 05:18 30.12943 120.57428 5146 ft 244 kts 63°
2026-04-27 05:18 30.13704 120.59144 5001 ft 237 kts 63°
2026-04-27 05:18 30.14444 120.60817 4850 ft 230 kts 63°
2026-04-27 05:18 30.15165 120.62455 4700 ft 227 kts 64°
2026-04-27 05:19 30.15876 120.64065 4553 ft 224 kts 64°
2026-04-27 05:19 30.16586 120.65670 4367 ft 224 kts 63°
2026-04-27 05:19 30.17289 120.67270 4140 ft 224 kts 64°
2026-04-27 05:19 30.17993 120.68869 3914 ft 223 kts 64°
2026-04-27 05:20 30.18695 120.70466 3701 ft 223 kts 63°
2026-04-27 05:20 30.19401 120.72066 3475 ft 223 kts 63°
2026-04-27 05:20 30.20100 120.73653 3261 ft 221 kts 63°
2026-04-27 05:20 30.20852 120.75210 3034 ft 221 kts 50°
2026-04-27 05:21 30.22095 120.76228 2815 ft 221 kts 15°
2026-04-27 05:21 30.23596 120.76280 2593 ft 216 kts 341°
2026-04-27 05:21 30.24952 120.75573 2379 ft 213 kts 331°
2026-04-27 05:21 30.26268 120.74783 2144 ft 213 kts 325°
2026-04-27 05:22 30.27308 120.73606 2018 ft 209 kts 306°
2026-04-27 05:22 30.28178 120.72258 1992 ft 209 kts 304°
2026-04-27 05:22 30.29026 120.70886 1989 ft 209 kts 303°
2026-04-27 05:22 30.29660 120.69418 1983 ft 198 kts 287°
2026-04-27 05:23 30.30043 120.67928 1985 ft 190 kts 284°
2026-04-27 05:23 30.30357 120.66464 2014 ft 187 kts 278°
2026-04-27 05:23 30.30511 120.64979 1985 ft 186 kts 275°
2026-04-27 05:23 30.30596 120.63483 1980 ft 186 kts 268°
2026-04-27 05:24 30.30517 120.61992 1977 ft 185 kts 264°
2026-04-27 05:24 30.30395 120.60509 1976 ft 184 kts 259°
2026-04-27 05:24 30.29929 120.59216 1965 ft 170 kts 243°
2026-04-27 05:24 30.29409 120.58041 1976 ft 163 kts 242°
2026-04-27 05:25 30.28894 120.56874 1975 ft 164 kts 243°
2026-04-27 05:25 30.28376 120.55701 1981 ft 165 kts 243°
2026-04-27 05:25 30.27850 120.54511 1746 ft 163 kts 243°
2026-04-27 05:25 30.27347 120.53373 1566 ft 151 kts 243°
2026-04-27 05:26 30.26883 120.52323 1355 ft 143 kts 242°
2026-04-27 05:26 30.26438 120.51316 1183 ft 140 kts 242°
2026-04-27 05:26 30.25996 120.50317 996 ft 139 kts 242°
2026-04-27 05:26 30.25558 120.49329 817 ft 139 kts 243°
2026-04-27 05:27 30.25118 120.48338 653 ft 140 kts 242°
2026-04-27 05:27 30.24677 120.47341 468 ft 139 kts 243°
2026-04-27 05:27 30.24233 120.46346 307 ft 140 kts 243°
2026-04-27 05:27 30.23794 120.45345 121 ft 139 kts 243°
2026-04-27 05:28 30.23365 120.44379 37 ft 126 kts 243°
2026-04-27 05:28 30.23028 120.43613 34 ft 83 kts 243°
2026-04-27 05:28 30.22830 120.43167 33 ft 52 kts 243°
2026-04-27 05:28 30.22718 120.42882 32 ft 28 kts 257°
2026-04-27 05:29 30.22709 120.42698 32 ft 21 kts 274°
2026-04-27 05:29 30.22738 120.42611 30 ft 7 kts 321°
2026-04-27 05:29 30.22770 120.42619 32 ft 4 kts 39°
2026-04-27 05:29 30.22788 120.42641 31 ft 3 kts 52°
2026-04-27 05:30 30.22803 120.42671 30 ft 9 kts 62°
2026-04-27 05:30 30.22854 120.42786 32 ft 20 kts 63°
2026-04-27 05:30 30.22921 120.42935 31 ft 22 kts 63°
2026-04-27 05:30 30.22993 120.43098 32 ft 24 kts 63°
2026-04-27 05:31 30.23065 120.43261 32 ft 17 kts 66°
2026-04-27 05:31 30.23120 120.43383 33 ft 17 kts 63°
2026-04-27 05:31 30.23175 120.43508 32 ft 18 kts 63°
2026-04-27 05:31 30.23231 120.43633 32 ft 17 kts 62°
2026-04-27 05:32 30.23284 120.43754 32 ft 16 kts 63°
2026-04-27 05:32 30.23332 120.43865 32 ft 15 kts 63°
2026-04-27 05:32 30.23373 120.43958 32 ft 9 kts 63°
2026-04-27 05:32 30.23404 120.44028 32 ft 13 kts 64°
2026-04-27 05:33 30.23471 120.44079 32 ft 12 kts 336°
2026-04-27 05:33 30.23552 120.44027 32 ft 18 kts 331°
2026-04-27 05:33 30.23683 120.43949 32 ft 23 kts 333°
2026-04-27 05:33 30.23831 120.43862 32 ft 25 kts 333°
2026-04-27 05:34 30.23991 120.43769 32 ft 27 kts 333°
2026-04-27 05:34 30.24161 120.43669 32 ft 28 kts 333°
2026-04-27 05:34 30.24332 120.43569 32 ft 27 kts 334°
2026-04-27 05:34 30.24500 120.43470 32 ft 26 kts 333°
2026-04-27 05:35 30.24569 120.43394 32 ft 13 kts 260°
2026-04-27 05:35 30.24519 120.43272 32 ft 23 kts 243°
2026-04-27 05:35 30.24438 120.43086 32 ft 26 kts 244°
2026-04-27 05:35 30.24361 120.42910 32 ft 22 kts 243°
2026-04-27 05:36 30.24301 120.42798 31 ft 12 kts 220°
2026-04-27 05:36 30.24231 120.42819 31 ft 10 kts 153°
2026-04-27 05:36 30.24173 120.42853 31 ft 8 kts 153°
2026-04-27 05:36 30.24142 120.42839 32 ft 4 kts 239°
2026-04-27 05:37 30.24130 120.42818 32 ft 3 kts 235°
2026-04-27 05:37 30.24122 120.42804 32 ft 2 kts 234°
2026-04-27 05:37 30.24121 120.42803 32 ft 0 kts 234°